EUTELSAT 7A

Last updated on Jan. 29, 2020, 4:37 a.m. UTC

1 28187U 04008A   20028.85970847  .00000047  00000-0  00000-0 0  9999
2 28187   0.0649   6.6051 0003608 285.8911 151.5594  1.00276000 57981
UTC
Height (km)
Latitude
Longitude
Inclination
Orbital Period
UTC large
Height (km)
Speed (km/s)
/
Latitude / Longitude
Inclination (degrees)
Orbital Period (minutes)
Azimuth
Elevation
Range (km)
Doppler Factor
iOS Compass Heading
iOS Angle

Next 30 passes for location: Hong Kong

Rise time Rise Azimuth (degrees) Set time Set Azimuth (degrees) Duration Max altitude (degrees)

No matching passes for this satellites